Time,TemperatureF,DewpointF,PressureIn,WindDirection,WindDirectionDegrees,WindSpeedMPH,WindSpeedGustMPH,Humidity,HourlyPrecipIn,Conditions,Clouds,dailyrainin,SoftwareType,DateUTC
2013-05-20 00:03:00,72.7,56.6,29.96,North,0,0.0,0.0,57,0.00,,,0.00,VWS V14.01,2013-05-19 21:03:00,
2013-05-20 00:09:00,72.7,57.5,29.96,North,0,0.0,0.0,59,0.00,,,0.00,VWS V14.01,2013-05-19 21:09:00,
2013-05-20 00:14:00,72.5,57.3,29.96,North,0,0.0,0.0,59,0.00,,,0.00,VWS V14.01,2013-05-19 21:14:00,
2013-05-20 00:19:00,72.5,57.8,29.96,North,0,0.0,0.0,60,0.00,,,0.00,VWS V14.01,2013-05-19 21:19:00,
2013-05-20 00:24:00,72.5,57.8,29.96,North,0,0.0,0.0,60,0.00,,,0.00,VWS V14.01,2013-05-19 21:24:00,
2013-05-20 00:29:00,72.3,57.6,29.96,North,0,0.0,0.0,60,0.00,,,0.00,VWS V14.01,2013-05-19 21:29:00,
2013-05-20 00:34:00,72.3,57.6,29.96,North,0,0.0,0.0,60,0.00,,,0.00,VWS V14.01,2013-05-19 21:34:00,
2013-05-20 00:39:00,72.1,57.4,29.96,North,0,0.0,0.0,60,0.00,,,0.00,VWS V14.01,2013-05-19 21:39:00,
2013-05-20 00:44:00,72.1,57.4,29.96,North,0,0.0,0.0,60,0.00,,,0.00,VWS V14.01,2013-05-19 21:44:00,
2013-05-20 00:49:00,72.1,57.4,29.96,North,0,0.0,0.0,60,0.00,,,0.00,VWS V14.01,2013-05-19 21:49:00,
2013-05-20 00:54:00,72.1,57.9,29.96,North,0,0.0,0.0,61,0.00,,,0.00,VWS V14.01,2013-05-19 21:54:00,
2013-05-20 00:59:00,72.1,57.9,29.96,North,0,0.0,0.0,61,0.00,,,0.00,VWS V14.01,2013-05-19 21:59:00,
2013-05-20 01:04:00,72.1,57.9,29.95,North,0,0.0,0.0,61,0.00,,,0.00,VWS V14.01,2013-05-19 22:04:00,
2013-05-20 01:09:00,72.1,57.9,29.95,North,0,0.0,0.0,61,0.00,,,0.00,VWS V14.01,2013-05-19 22:09:00,
2013-05-20 01:14:00,72.1,57.4,29.95,North,0,0.0,0.0,60,0.00,,,0.00,VWS V14.01,2013-05-19 22:14:00,
2013-05-20 01:19:00,72.0,57.3,29.95,North,0,0.0,0.0,60,0.00,,,0.00,VWS V14.01,2013-05-19 22:19:00,
2013-05-20 01:24:00,71.8,57.2,29.95,North,0,0.0,0.0,60,0.00,,,0.00,VWS V14.01,2013-05-19 22:24:00,
2013-05-20 01:29:00,71.6,57.0,29.95,North,0,0.0,0.0,60,0.00,,,0.00,VWS V14.01,2013-05-19 22:29:00,
2013-05-20 01:34:00,71.6,57.4,29.95,North,0,0.0,0.0,61,0.00,,,0.00,VWS V14.01,2013-05-19 22:34:00,
2013-05-20 01:39:00,71.2,57.0,29.95,North,0,0.0,0.0,61,0.00,,,0.00,VWS V14.01,2013-05-19 22:39:00,
2013-05-20 01:44:00,71.1,57.0,29.95,North,0,0.0,0.0,61,0.00,,,0.00,VWS V14.01,2013-05-19 22:44:00,
2013-05-20 01:49:00,70.9,57.2,29.95,North,0,0.0,0.0,62,0.00,,,0.00,VWS V14.01,2013-05-19 22:49:00,
2013-05-20 01:54:00,70.7,57.0,29.95,North,0,0.0,0.0,62,0.00,,,0.00,VWS V14.01,2013-05-19 22:54:00,
2013-05-20 01:59:00,70.7,57.0,29.95,North,0,0.0,0.0,62,0.00,,,0.00,VWS V14.01,2013-05-19 22:59:00,
2013-05-20 02:04:00,70.5,56.8,29.95,North,0,0.0,0.0,62,0.00,,,0.00,VWS V14.01,2013-05-19 23:04:00,
2013-05-20 02:09:00,70.5,57.3,29.95,North,0,0.0,0.0,63,0.00,,,0.00,VWS V14.01,2013-05-19 23:09:00,
2013-05-20 02:15:00,70.3,57.1,29.95,North,0,0.0,0.0,63,0.00,,,0.00,VWS V14.01,2013-05-19 23:15:00,
2013-05-20 02:20:00,70.3,57.1,29.95,North,0,0.0,0.0,63,0.00,,,0.00,VWS V14.01,2013-05-19 23:20:00,
2013-05-20 02:25:00,70.3,57.5,29.94,North,0,0.0,0.0,64,0.00,,,0.00,VWS V14.01,2013-05-19 23:25:00,
2013-05-20 02:30:00,70.0,57.2,29.94,North,0,0.0,0.0,64,0.00,,,0.00,VWS V14.01,2013-05-19 23:30:00,
2013-05-20 02:35:00,70.0,57.7,29.94,North,0,0.0,0.0,65,0.00,,,0.00,VWS V14.01,2013-05-19 23:35:00,
2013-05-20 02:40:00,69.8,57.5,29.94,North,0,0.0,0.0,65,0.00,,,0.00,VWS V14.01,2013-05-19 23:40:00,
2013-05-20 02:45:00,69.8,57.5,29.94,North,0,0.0,0.0,65,0.00,,,0.00,VWS V14.01,2013-05-19 23:45:00,
2013-05-20 02:50:00,69.8,57.5,29.94,North,0,0.0,0.0,65,0.00,,,0.00,VWS V14.01,2013-05-19 23:50:00,
2013-05-20 02:55:00,69.8,57.5,29.94,North,0,0.0,0.0,65,0.00,,,0.00,VWS V14.01,2013-05-19 23:55:00,
2013-05-20 03:00:00,69.8,57.5,29.94,North,0,0.0,0.0,65,0.00,,,0.00,VWS V14.01,2013-05-20 00:00:00,
2013-05-20 03:05:00,69.4,57.5,29.94,North,0,0.0,0.0,66,0.00,,,0.00,VWS V14.01,2013-05-20 00:05:00,
2013-05-20 03:10:00,69.3,57.4,29.94,North,0,0.0,0.0,66,0.00,,,0.00,VWS V14.01,2013-05-20 00:10:00,
2013-05-20 03:15:00,68.9,57.0,29.94,North,0,0.0,0.0,66,0.00,,,0.00,VWS V14.01,2013-05-20 00:15:00,
2013-05-20 03:20:00,68.9,57.0,29.94,North,0,0.0,0.0,66,0.00,,,0.00,VWS V14.01,2013-05-20 00:20:00,
2013-05-20 03:25:00,68.9,57.0,29.94,North,0,0.0,0.0,66,0.00,,,0.00,VWS V14.01,2013-05-20 00:25:00,
2013-05-20 03:30:00,69.1,56.8,29.94,North,0,0.0,0.0,65,0.00,,,0.00,VWS V14.01,2013-05-20 00:30:00,
2013-05-20 03:36:00,69.1,56.8,29.94,North,0,0.0,0.0,65,0.00,,,0.00,VWS V14.01,2013-05-20 00:36:00,
2013-05-20 03:41:00,68.9,56.2,29.94,North,0,0.0,0.0,64,0.00,,,0.00,VWS V14.01,2013-05-20 00:41:00,
2013-05-20 03:46:00,68.9,56.2,29.94,North,0,0.0,0.0,64,0.00,,,0.00,VWS V14.01,2013-05-20 00:46:00,
2013-05-20 03:51:00,68.9,56.2,29.94,North,0,0.0,0.0,64,0.00,,,0.00,VWS V14.01,2013-05-20 00:51:00,
2013-05-20 03:56:00,68.9,56.2,29.94,North,0,0.0,0.0,64,0.00,,,0.00,VWS V14.01,2013-05-20 00:56:00,
2013-05-20 04:01:00,68.9,56.2,29.94,North,0,0.0,0.0,64,0.00,,,0.00,VWS V14.01,2013-05-20 01:01:00,
2013-05-20 04:06:00,68.9,56.2,29.94,North,0,0.0,0.0,64,0.00,,,0.00,VWS V14.01,2013-05-20 01:06:00,
2013-05-20 04:11:00,68.7,56.4,29.93,North,0,0.0,0.0,65,0.00,,,0.00,VWS V14.01,2013-05-20 01:11:00,
2013-05-20 04:16:00,68.7,56.4,29.93,North,0,0.0,0.0,65,0.00,,,0.00,VWS V14.01,2013-05-20 01:16:00,
2013-05-20 04:21:00,68.7,56.4,29.93,North,0,0.0,0.0,65,0.00,,,0.00,VWS V14.01,2013-05-20 01:21:00,
2013-05-20 04:26:00,68.7,56.4,29.93,North,0,0.0,0.0,65,0.00,,,0.00,VWS V14.01,2013-05-20 01:26:00,
2013-05-20 04:31:00,68.7,56.0,29.93,North,0,0.0,0.0,64,0.00,,,0.00,VWS V14.01,2013-05-20 01:31:00,
2013-05-20 04:36:00,68.9,56.2,29.93,North,0,0.0,0.0,64,0.00,,,0.00,VWS V14.01,2013-05-20 01:36:00,
2013-05-20 04:41:00,68.9,55.8,29.93,North,0,0.0,0.0,63,0.00,,,0.00,VWS V14.01,2013-05-20 01:41:00,
2013-05-20 04:46:00,69.1,56.0,29.93,North,0,0.0,0.0,63,0.00,,,0.00,VWS V14.01,2013-05-20 01:46:00,
2013-05-20 04:51:00,69.1,56.0,29.93,North,0,0.0,0.0,63,0.00,,,0.00,VWS V14.01,2013-05-20 01:51:00,
2013-05-20 04:56:00,68.9,55.8,29.93,North,0,0.0,0.0,63,0.00,,,0.00,VWS V14.01,2013-05-20 01:56:00,
2013-05-20 05:01:00,68.7,56.0,29.93,North,0,0.0,0.0,64,0.00,,,0.00,VWS V14.01,2013-05-20 02:01:00,
2013-05-20 05:06:00,68.7,56.0,29.93,North,0,0.0,0.0,64,0.00,,,0.00,VWS V14.01,2013-05-20 02:06:00,
2013-05-20 05:11:00,68.5,55.8,29.92,North,0,0.0,0.0,64,0.00,,,0.00,VWS V14.01,2013-05-20 02:11:00,
2013-05-20 05:16:00,68.5,55.8,29.92,North,0,0.0,0.0,64,0.00,,,0.00,VWS V14.01,2013-05-20 02:16:00,
2013-05-20 05:21:00,68.7,56.0,29.93,North,0,0.0,0.0,64,0.00,,,0.00,VWS V14.01,2013-05-20 02:21:00,
2013-05-20 05:26:00,68.9,56.6,29.93,North,0,0.0,0.0,65,0.00,,,0.00,VWS V14.01,2013-05-20 02:26:00,
2013-05-20 05:31:00,69.1,56.8,29.93,North,0,0.0,0.0,65,0.00,,,0.00,VWS V14.01,2013-05-20 02:31:00,
2013-05-20 05:36:00,69.3,57.0,29.93,North,0,1.3,1.3,65,0.00,,,0.00,VWS V14.01,2013-05-20 02:36:00,
2013-05-20 05:42:00,69.3,57.0,29.93,North,0,1.3,1.3,65,0.00,,,0.00,VWS V14.01,2013-05-20 02:42:00,
2013-05-20 05:47:00,69.6,57.3,29.93,North,0,3.3,3.3,65,0.00,,,0.00,VWS V14.01,2013-05-20 02:47:00,
2013-05-20 05:52:00,70.0,57.7,29.93,NW,315,6.0,6.0,65,0.00,,,0.00,VWS V14.01,2013-05-20 02:52:00,
2013-05-20 05:57:00,70.2,57.4,29.93,NW,315,3.8,7.1,64,0.00,,,0.00,VWS V14.01,2013-05-20 02:57:00,
2013-05-20 06:02:00,70.3,57.5,29.93,NNW,338,0.4,0.4,64,0.00,,,0.00,VWS V14.01,2013-05-20 03:02:00,
2013-05-20 06:07:00,70.3,57.1,29.93,NNW,338,2.4,2.4,63,0.00,,,0.00,VWS V14.01,2013-05-20 03:07:00,
2013-05-20 06:12:00,70.3,57.1,29.93,NW,315,0.0,0.0,63,0.00,,,0.00,VWS V14.01,2013-05-20 03:12:00,
2013-05-20 06:17:00,70.3,57.1,29.93,NNE,22,2.9,2.9,63,0.00,,,0.00,VWS V14.01,2013-05-20 03:17:00,
2013-05-20 06:22:00,70.3,57.1,29.93,NW,315,0.0,4.2,63,0.00,,,0.00,VWS V14.01,2013-05-20 03:22:00,
2013-05-20 06:27:00,70.3,57.1,29.93,NNW,338,0.0,0.0,63,0.00,,,0.00,VWS V14.01,2013-05-20 03:27:00,
2013-05-20 06:32:00,70.3,57.1,29.93,NNW,338,0.0,0.0,63,0.00,,,0.00,VWS V14.01,2013-05-20 03:32:00,
2013-05-20 06:37:00,70.3,57.1,29.93,NNW,338,8.2,8.2,63,0.00,,,0.00,VWS V14.01,2013-05-20 03:37:00,
2013-05-20 06:43:00,70.3,57.1,29.93,NNW,338,0.8,0.8,63,0.00,,,0.00,VWS V14.01,2013-05-20 03:43:00,
2013-05-20 06:48:00,70.3,57.5,29.93,NNW,338,4.9,4.9,64,0.00,,,0.00,VWS V14.01,2013-05-20 03:48:00,
2013-05-20 06:53:00,70.3,57.5,29.93,NNW,338,2.0,2.0,64,0.00,,,0.00,VWS V14.01,2013-05-20 03:53:00,
2013-05-20 06:58:00,70.5,57.7,29.93,NNW,338,4.9,4.9,64,0.00,,,0.00,VWS V14.01,2013-05-20 03:58:00,
2013-05-20 07:01:00,70.5,57.7,29.93,NNW,338,9.8,9.8,64,0.00,,,0.00,VWS V14.01,2013-05-20 04:01:00,
2013-05-20 07:02:00,70.5,57.7,29.93,NNW,338,1.5,1.5,64,0.00,,,0.00,VWS V14.01,2013-05-20 04:02:00,
2013-05-20 07:03:00,70.5,57.7,29.93,NNW,338,4.6,4.6,64,0.00,,,0.00,VWS V14.01,2013-05-20 04:03:00,
2013-05-20 07:09:00,70.7,57.5,29.93,NNW,338,4.0,4.0,63,0.00,,,0.00,VWS V14.01,2013-05-20 04:09:00,
2013-05-20 07:10:00,70.7,57.5,29.93,NNW,338,4.0,4.0,63,0.00,,,0.00,VWS V14.01,2013-05-20 04:10:00,
2013-05-20 07:15:00,70.9,57.7,29.93,NNW,338,4.9,4.9,63,0.00,,,0.00,VWS V14.01,2013-05-20 04:15:00,
2013-05-20 07:20:00,71.1,57.8,29.93,NNW,338,7.3,7.3,63,0.00,,,0.00,VWS V14.01,2013-05-20 04:20:00,
2013-05-20 07:25:00,71.2,57.5,29.94,NNW,338,6.2,6.2,62,0.00,,,0.00,VWS V14.01,2013-05-20 04:25:00,
2013-05-20 07:30:00,71.4,57.7,29.93,NNW,338,6.0,6.0,62,0.00,,,0.00,VWS V14.01,2013-05-20 04:30:00,
2013-05-20 07:35:00,71.6,57.9,29.93,NNW,338,0.4,0.4,62,0.00,,,0.00,VWS V14.01,2013-05-20 04:35:00,
2013-05-20 07:40:00,71.8,57.6,29.94,NNW,338,8.0,8.0,61,0.00,,,0.00,VWS V14.01,2013-05-20 04:40:00,
2013-05-20 07:45:00,72.1,57.9,29.94,NNW,338,7.6,8.5,61,0.00,,,0.00,VWS V14.01,2013-05-20 04:45:00,
2013-05-20 07:50:00,72.5,57.8,29.94,NNW,338,6.7,6.7,60,0.00,,,0.00,VWS V14.01,2013-05-20 04:50:00,
2013-05-20 07:55:00,72.7,58.0,29.94,NNW,338,3.1,6.0,60,0.00,,,0.00,VWS V14.01,2013-05-20 04:55:00,
2013-05-20 08:00:00,73.0,58.3,29.94,NNW,338,4.2,4.2,60,0.00,,,0.00,VWS V14.01,2013-05-20 05:00:00,
2013-05-20 08:05:00,73.4,58.7,29.94,NNW,338,0.0,0.0,60,0.00,,,0.00,VWS V14.01,2013-05-20 05:05:00,
2013-05-20 08:10:00,74.3,59.0,29.94,NNW,338,0.0,0.0,59,0.00,,,0.00,VWS V14.01,2013-05-20 05:10:00,
2013-05-20 08:15:00,74.8,59.5,29.94,NNW,338,0.0,0.0,59,0.00,,,0.00,VWS V14.01,2013-05-20 05:15:00,
2013-05-20 08:20:00,75.4,59.6,29.94,NNW,338,0.0,0.0,58,0.00,,,0.00,VWS V14.01,2013-05-20 05:20:00,
2013-05-20 08:25:00,75.6,59.8,29.95,NNW,338,0.0,0.0,58,0.00,,,0.00,VWS V14.01,2013-05-20 05:25:00,
2013-05-20 08:30:00,75.7,59.4,29.95,NNW,338,0.0,0.0,57,0.00,,,0.00,VWS V14.01,2013-05-20 05:30:00,
2013-05-20 08:35:00,75.9,59.5,29.94,NNW,338,0.0,0.0,57,0.00,,,0.00,VWS V14.01,2013-05-20 05:35:00,
2013-05-20 08:40:00,76.5,60.1,29.95,NNW,338,0.0,0.0,57,0.00,,,0.00,VWS V14.01,2013-05-20 05:40:00,
2013-05-20 08:46:00,76.6,60.2,29.95,NNW,338,0.0,0.0,57,0.00,,,0.00,VWS V14.01,2013-05-20 05:46:00,
2013-05-20 08:51:00,77.0,60.1,29.95,NNW,338,0.0,0.0,56,0.00,,,0.00,VWS V14.01,2013-05-20 05:51:00,
2013-05-20 08:56:00,77.0,60.1,29.95,WNW,292,0.0,0.0,56,0.00,,,0.00,VWS V14.01,2013-05-20 05:56:00,
2013-05-20 09:01:00,77.0,60.1,29.95,WNW,292,0.0,0.0,56,0.00,,,0.00,VWS V14.01,2013-05-20 06:01:00,
2013-05-20 09:06:00,77.0,59.6,29.95,WNW,292,0.0,0.0,55,0.00,,,0.00,VWS V14.01,2013-05-20 06:06:00,
2013-05-20 09:11:00,77.2,59.2,29.95,WNW,292,0.0,0.0,54,0.00,,,0.00,VWS V14.01,2013-05-20 06:11:00,
2013-05-20 09:16:00,78.1,59.6,29.95,WNW,292,0.0,0.0,53,0.00,,,0.00,VWS V14.01,2013-05-20 06:16:00,
2013-05-20 09:21:00,78.8,60.2,29.95,WNW,292,0.0,0.0,53,0.00,,,0.00,VWS V14.01,2013-05-20 06:21:00,
2013-05-20 09:26:00,79.3,60.1,29.95,WNW,292,1.5,1.5,52,0.00,,,0.00,VWS V14.01,2013-05-20 06:26:00,
2013-05-20 09:31:00,79.7,60.5,29.96,WNW,292,0.0,0.0,52,0.00,,,0.00,VWS V14.01,2013-05-20 06:31:00,
2013-05-20 09:36:00,80.1,59.8,29.96,WNW,292,0.0,0.0,50,0.00,,,0.00,VWS V14.01,2013-05-20 06:36:00,
2013-05-20 09:41:00,80.1,59.2,29.96,WNW,292,0.0,0.0,49,0.00,,,0.00,VWS V14.01,2013-05-20 06:41:00,
2013-05-20 09:46:00,80.4,59.5,29.96,WNW,292,0.0,0.0,49,0.00,,,0.00,VWS V14.01,2013-05-20 06:46:00,
2013-05-20 09:51:00,81.1,59.0,29.96,WNW,292,0.0,0.0,47,0.00,,,0.00,VWS V14.01,2013-05-20 06:51:00,
2013-05-20 09:56:00,81.5,59.3,29.96,WNW,292,0.0,0.0,47,0.00,,,0.00,VWS V14.01,2013-05-20 06:56:00,
2013-05-20 10:01:00,81.3,58.5,29.96,WNW,292,0.0,0.0,46,0.00,,,0.00,VWS V14.01,2013-05-20 07:01:00,
2013-05-20 10:06:00,81.1,59.5,29.96,WNW,292,0.0,0.0,48,0.00,,,0.00,VWS V14.01,2013-05-20 07:06:00,
2013-05-20 10:12:00,82.2,61.1,29.96,WNW,292,0.0,0.0,49,0.00,,,0.00,VWS V14.01,2013-05-20 07:12:00,
2013-05-20 10:17:00,82.4,60.1,29.96,WNW,292,0.0,0.0,47,0.00,,,0.00,VWS V14.01,2013-05-20 07:17:00,
2013-05-20 10:22:00,82.9,59.4,29.96,WNW,292,0.0,0.0,45,0.00,,,0.00,VWS V14.01,2013-05-20 07:22:00,
2013-05-20 10:27:00,83.5,59.3,29.96,WNW,292,0.0,0.0,44,0.00,,,0.00,VWS V14.01,2013-05-20 07:27:00,
2013-05-20 10:32:00,83.7,59.5,29.96,WNW,292,0.0,0.0,44,0.00,,,0.00,VWS V14.01,2013-05-20 07:32:00,
2013-05-20 10:37:00,84.4,59.5,29.95,WNW,292,0.0,0.0,43,0.00,,,0.00,VWS V14.01,2013-05-20 07:37:00,
2013-05-20 10:42:00,84.7,59.7,29.95,WNW,292,0.0,0.0,43,0.00,,,0.00,VWS V14.01,2013-05-20 07:42:00,
2013-05-20 10:47:00,85.3,58.2,29.95,SW,225,0.0,0.0,40,0.00,,,0.00,VWS V14.01,2013-05-20 07:47:00,
2013-05-20 10:52:00,85.1,57.3,29.95,SW,225,0.0,0.0,39,0.00,,,0.00,VWS V14.01,2013-05-20 07:52:00,
2013-05-20 10:57:00,85.3,57.5,29.95,SW,225,0.0,0.0,39,0.00,,,0.00,VWS V14.01,2013-05-20 07:57:00,
2013-05-20 11:02:00,85.5,57.7,29.95,SSW,202,0.0,0.0,39,0.00,,,0.00,VWS V14.01,2013-05-20 08:02:00,
2013-05-20 11:07:00,86.0,58.9,29.95,SSW,202,0.0,0.0,40,0.00,,,0.00,VWS V14.01,2013-05-20 08:07:00,
2013-05-20 11:12:00,86.5,58.6,29.95,SSE,158,0.0,0.0,39,0.00,,,0.00,VWS V14.01,2013-05-20 08:12:00,
2013-05-20 11:17:00,86.5,58.6,29.95,NE,45,0.0,0.0,39,0.00,,,0.00,VWS V14.01,2013-05-20 08:17:00,
2013-05-20 11:22:00,86.9,59.7,29.95,NE,45,0.0,0.0,40,0.00,,,0.00,VWS V14.01,2013-05-20 08:22:00,
2013-05-20 11:27:00,87.4,58.7,29.95,NE,45,0.0,0.0,38,0.00,,,0.00,VWS V14.01,2013-05-20 08:27:00,
2013-05-20 11:32:00,88.2,59.4,29.95,NE,45,0.0,0.0,38,0.00,,,0.00,VWS V14.01,2013-05-20 08:32:00,
2013-05-20 11:37:00,88.3,59.5,29.95,NE,45,0.0,0.0,38,0.00,,,0.00,VWS V14.01,2013-05-20 08:37:00,
2013-05-20 11:42:00,88.0,59.9,29.95,NE,45,2.0,2.0,39,0.00,,,0.00,VWS V14.01,2013-05-20 08:42:00,
2013-05-20 11:47:00,87.8,60.5,29.95,NE,45,0.0,0.0,40,0.00,,,0.00,VWS V14.01,2013-05-20 08:47:00,
2013-05-20 11:52:00,87.8,59.8,29.95,NE,45,0.0,0.0,39,0.00,,,0.00,VWS V14.01,2013-05-20 08:52:00,
2013-05-20 11:58:00,88.0,59.2,29.95,NE,45,0.0,0.0,38,0.00,,,0.00,VWS V14.01,2013-05-20 08:58:00,
2013-05-20 12:03:00,88.0,59.9,29.95,ENE,68,0.0,0.0,39,0.00,,,0.00,VWS V14.01,2013-05-20 09:03:00,
2013-05-20 12:08:00,87.8,59.8,29.95,East,90,0.0,0.0,39,0.00,,,0.00,VWS V14.01,2013-05-20 09:08:00,
2013-05-20 12:13:00,87.6,59.6,29.95,ESE,112,4.9,4.9,39,0.00,,,0.00,VWS V14.01,2013-05-20 09:13:00,
2013-05-20 12:18:00,87.8,59.8,29.95,ESE,112,0.0,0.0,39,0.00,,,0.00,VWS V14.01,2013-05-20 09:18:00,
2013-05-20 12:23:00,87.4,58.7,29.95,East,90,1.3,1.3,38,0.00,,,0.00,VWS V14.01,2013-05-20 09:23:00,
2013-05-20 12:28:00,87.4,58.7,29.95,ESE,112,2.2,2.2,38,0.00,,,0.00,VWS V14.01,2013-05-20 09:28:00,
2013-05-20 12:33:00,87.4,58.7,29.95,East,90,3.3,3.3,38,0.00,,,0.00,VWS V14.01,2013-05-20 09:33:00,
2013-05-20 12:38:00,87.8,59.0,29.95,East,90,0.8,0.8,38,0.00,,,0.00,VWS V14.01,2013-05-20 09:38:00,
2013-05-20 12:43:00,87.8,58.3,29.95,ESE,112,5.1,6.0,37,0.00,,,0.00,VWS V14.01,2013-05-20 09:43:00,
2013-05-20 12:48:00,87.8,58.3,29.95,SE,135,0.0,0.0,37,0.00,,,0.00,VWS V14.01,2013-05-20 09:48:00,
2013-05-20 12:53:00,88.3,58.7,29.95,East,90,2.9,2.9,37,0.00,,,0.00,VWS V14.01,2013-05-20 09:53:00,
2013-05-20 12:58:00,88.5,58.9,29.95,ESE,112,0.0,0.0,37,0.00,,,0.00,VWS V14.01,2013-05-20 09:58:00,
2013-05-20 13:03:00,88.7,58.3,29.95,ENE,68,0.0,0.0,36,0.00,,,0.00,VWS V14.01,2013-05-20 10:03:00,
2013-05-20 13:08:00,88.7,58.3,29.95,ENE,68,2.2,2.2,36,0.00,,,0.00,VWS V14.01,2013-05-20 10:08:00,
2013-05-20 13:13:00,88.7,58.3,29.95,ESE,112,2.4,2.4,36,0.00,,,0.00,VWS V14.01,2013-05-20 10:13:00,
2013-05-20 13:18:00,88.7,58.3,29.95,ESE,112,0.0,2.4,36,0.00,,,0.00,VWS V14.01,2013-05-20 10:18:00,
2013-05-20 13:23:00,88.7,57.5,29.95,ENE,68,0.0,0.0,35,0.00,,,0.00,VWS V14.01,2013-05-20 10:23:00,
2013-05-20 13:29:00,88.3,56.4,29.95,ESE,112,4.9,4.9,34,0.00,,,0.00,VWS V14.01,2013-05-20 10:29:00,
2013-05-20 13:34:00,88.3,57.2,29.95,ESE,112,3.5,3.5,35,0.00,,,0.00,VWS V14.01,2013-05-20 10:34:00,
2013-05-20 13:39:00,88.2,57.1,29.95,SE,135,0.0,0.0,35,0.00,,,0.00,VWS V14.01,2013-05-20 10:39:00,
2013-05-20 13:44:00,88.2,57.1,29.95,NE,45,0.0,0.0,35,0.00,,,0.00,VWS V14.01,2013-05-20 10:44:00,
2013-05-20 13:49:00,88.0,56.9,29.95,ESE,112,0.0,0.0,35,0.00,,,0.00,VWS V14.01,2013-05-20 10:49:00,
2013-05-20 13:54:00,88.3,57.2,29.95,ESE,112,0.0,0.0,35,0.00,,,0.00,VWS V14.01,2013-05-20 10:54:00,
2013-05-20 13:59:00,88.7,57.5,29.94,ENE,68,2.6,2.6,35,0.00,,,0.00,VWS V14.01,2013-05-20 10:59:00,
2013-05-20 14:04:00,88.5,57.3,29.94,East,90,0.0,0.0,35,0.00,,,0.00,VWS V14.01,2013-05-20 11:04:00,
2013-05-20 14:09:00,88.7,58.3,29.94,ESE,112,0.0,0.0,36,0.00,,,0.00,VWS V14.01,2013-05-20 11:09:00,
2013-05-20 14:14:00,88.7,58.3,29.94,NE,45,0.0,0.0,36,0.00,,,0.00,VWS V14.01,2013-05-20 11:14:00,
2013-05-20 14:19:00,88.9,57.7,29.94,ESE,112,1.5,1.5,35,0.00,,,0.00,VWS V14.01,2013-05-20 11:19:00,
2013-05-20 14:24:00,88.5,58.1,29.94,ESE,112,3.8,3.8,36,0.00,,,0.00,VWS V14.01,2013-05-20 11:24:00,
2013-05-20 14:29:00,88.7,58.3,29.94,ENE,68,0.0,0.0,36,0.00,,,0.00,VWS V14.01,2013-05-20 11:29:00,
2013-05-20 14:34:00,88.7,58.3,29.94,SE,135,0.0,0.0,36,0.00,,,0.00,VWS V14.01,2013-05-20 11:34:00,
2013-05-20 14:39:00,89.4,58.9,29.94,ENE,68,0.4,0.4,36,0.00,,,0.00,VWS V14.01,2013-05-20 11:39:00,
2013-05-20 14:44:00,88.7,59.1,29.94,ENE,68,3.3,9.6,37,0.00,,,0.00,VWS V14.01,2013-05-20 11:44:00,
2013-05-20 14:49:00,88.3,58.7,29.94,East,90,3.8,3.8,37,0.00,,,0.00,VWS V14.01,2013-05-20 11:49:00,
2013-05-20 14:54:00,88.7,59.1,29.94,ENE,68,0.0,0.0,37,0.00,,,0.00,VWS V14.01,2013-05-20 11:54:00,
2013-05-20 14:59:00,88.7,59.1,29.94,NE,45,0.0,0.0,37,0.00,,,0.00,VWS V14.01,2013-05-20 11:59:00,
2013-05-20 15:04:00,88.0,59.2,29.94,NNE,22,0.0,0.0,38,0.00,,,0.00,VWS V14.01,2013-05-20 12:04:00,
2013-05-20 15:09:00,88.0,58.5,29.94,ESE,112,0.0,8.5,37,0.00,,,0.00,VWS V14.01,2013-05-20 12:09:00,
2013-05-20 15:14:00,87.8,58.3,29.94,NE,45,0.0,0.0,37,0.00,,,0.00,VWS V14.01,2013-05-20 12:14:00,
2013-05-20 15:19:00,88.0,59.2,29.94,SE,135,4.9,4.9,38,0.00,,,0.00,VWS V14.01,2013-05-20 12:19:00,
2013-05-20 15:24:00,88.3,58.7,29.94,East,90,0.0,0.0,37,0.00,,,0.00,VWS V14.01,2013-05-20 12:24:00,
2013-05-20 15:30:00,88.0,59.2,29.93,ESE,112,0.8,0.8,38,0.00,,,0.00,VWS V14.01,2013-05-20 12:30:00,
2013-05-20 15:35:00,87.6,58.8,29.93,East,90,2.0,2.0,38,0.00,,,0.00,VWS V14.01,2013-05-20 12:35:00,
2013-05-20 15:40:00,87.8,59.8,29.93,East,90,2.2,2.2,39,0.00,,,0.00,VWS V14.01,2013-05-20 12:40:00,
2013-05-20 15:45:00,87.4,58.7,29.93,ESE,112,1.3,1.3,38,0.00,,,0.00,VWS V14.01,2013-05-20 12:45:00,
2013-05-20 15:50:00,87.4,59.4,29.93,East,90,1.7,1.7,39,0.00,,,0.00,VWS V14.01,2013-05-20 12:50:00,
2013-05-20 15:55:00,87.4,59.4,29.93,East,90,0.4,2.0,39,0.00,,,0.00,VWS V14.01,2013-05-20 12:55:00,
2013-05-20 16:00:00,87.8,60.5,29.93,NE,45,0.0,0.0,40,0.00,,,0.00,VWS V14.01,2013-05-20 13:00:00,
2013-05-20 16:05:00,87.8,60.5,29.93,NE,45,2.6,2.6,40,0.00,,,0.00,VWS V14.01,2013-05-20 13:05:00,
2013-05-20 16:10:00,87.8,59.8,29.93,ESE,112,0.0,0.0,39,0.00,,,0.00,VWS V14.01,2013-05-20 13:10:00,
2013-05-20 16:15:00,87.8,60.5,29.93,ESE,112,0.0,0.0,40,0.00,,,0.00,VWS V14.01,2013-05-20 13:15:00,
2013-05-20 16:20:00,87.4,60.1,29.92,ESE,112,2.0,4.0,40,0.00,,,0.00,VWS V14.01,2013-05-20 13:20:00,
2013-05-20 16:25:00,87.1,59.1,29.93,NE,45,0.0,0.0,39,0.00,,,0.00,VWS V14.01,2013-05-20 13:25:00,
2013-05-20 16:30:00,87.3,60.7,29.93,ESE,112,7.6,7.6,41,0.00,,,0.00,VWS V14.01,2013-05-20 13:30:00,
2013-05-20 16:35:00,86.5,60.7,29.93,SE,135,0.2,0.2,42,0.00,,,0.00,VWS V14.01,2013-05-20 13:35:00,
2013-05-20 16:40:00,86.9,61.0,29.93,East,90,1.7,1.7,42,0.00,,,0.00,VWS V14.01,2013-05-20 13:40:00,
2013-05-20 16:45:00,86.9,61.0,29.93,ESE,112,0.0,0.0,42,0.00,,,0.00,VWS V14.01,2013-05-20 13:45:00,
2013-05-20 16:50:00,86.5,60.7,29.92,ESE,112,4.2,4.2,42,0.00,,,0.00,VWS V14.01,2013-05-20 13:50:00,
2013-05-20 16:55:00,86.5,60.7,29.92,ESE,112,5.3,5.3,42,0.00,,,0.00,VWS V14.01,2013-05-20 13:55:00,
2013-05-20 17:01:00,86.5,60.7,29.92,ESE,112,3.5,3.5,42,0.00,,,0.00,VWS V14.01,2013-05-20 14:01:00,
2013-05-20 17:06:00,86.5,61.3,29.92,East,90,2.6,2.6,43,0.00,,,0.00,VWS V14.01,2013-05-20 14:06:00,
2013-05-20 17:11:00,86.5,60.7,29.92,ESE,112,4.9,4.9,42,0.00,,,0.00,VWS V14.01,2013-05-20 14:11:00,
2013-05-20 17:16:00,86.2,60.4,29.92,ENE,68,1.7,1.7,42,0.00,,,0.00,VWS V14.01,2013-05-20 14:16:00,
2013-05-20 17:21:00,86.0,60.9,29.92,ESE,112,0.0,0.0,43,0.00,,,0.00,VWS V14.01,2013-05-20 14:21:00,
2013-05-20 17:26:00,85.8,60.0,29.92,NE,45,1.5,1.7,42,0.00,,,0.00,VWS V14.01,2013-05-20 14:26:00,
2013-05-20 17:31:00,85.6,58.5,29.92,ESE,112,6.7,6.9,40,0.00,,,0.00,VWS V14.01,2013-05-20 14:31:00,
2013-05-20 17:36:00,85.6,59.9,29.92,ESE,112,3.8,3.8,42,0.00,,,0.00,VWS V14.01,2013-05-20 14:36:00,
2013-05-20 17:41:00,85.5,58.4,29.92,ESE,112,6.4,6.4,40,0.00,,,0.00,VWS V14.01,2013-05-20 14:41:00,
2013-05-20 17:46:00,85.3,58.2,29.92,NE,45,1.7,1.7,40,0.00,,,0.00,VWS V14.01,2013-05-20 14:46:00,
2013-05-20 17:51:00,85.1,57.3,29.92,ESE,112,3.5,3.5,39,0.00,,,0.00,VWS V14.01,2013-05-20 14:51:00,
2013-05-20 17:56:00,85.1,57.3,29.92,ENE,68,0.0,0.0,39,0.00,,,0.00,VWS V14.01,2013-05-20 14:56:00,
2013-05-20 18:01:00,84.7,57.7,29.92,ESE,112,4.2,4.2,40,0.00,,,0.00,VWS V14.01,2013-05-20 15:01:00,
2013-05-20 18:06:00,84.6,57.6,29.92,ESE,112,2.6,2.6,40,0.00,,,0.00,VWS V14.01,2013-05-20 15:06:00,
2013-05-20 18:11:00,84.4,57.4,29.92,East,90,0.0,0.0,40,0.00,,,0.00,VWS V14.01,2013-05-20 15:11:00,
2013-05-20 18:16:00,84.2,57.2,29.92,ESE,112,0.0,0.0,40,0.00,,,0.00,VWS V14.01,2013-05-20 15:16:00,
2013-05-20 18:21:00,83.8,56.9,29.91,East,90,0.0,0.0,40,0.00,,,0.00,VWS V14.01,2013-05-20 15:21:00,
2013-05-20 18:26:00,83.7,56.8,29.92,East,90,0.6,0.6,40,0.00,,,0.00,VWS V14.01,2013-05-20 15:26:00,
2013-05-20 18:32:00,83.7,56.1,29.91,ENE,68,0.0,0.0,39,0.00,,,0.00,VWS V14.01,2013-05-20 15:32:00,
2013-05-20 18:37:00,83.5,56.6,29.91,East,90,4.4,4.4,40,0.00,,,0.00,VWS V14.01,2013-05-20 15:37:00,
2013-05-20 18:42:00,83.5,56.6,29.92,East,90,0.0,0.0,40,0.00,,,0.00,VWS V14.01,2013-05-20 15:42:00,
2013-05-20 18:47:00,83.3,56.5,29.92,ENE,68,0.0,0.0,40,0.00,,,0.00,VWS V14.01,2013-05-20 15:47:00,
2013-05-20 18:52:00,83.1,56.3,29.92,ENE,68,0.0,0.0,40,0.00,,,0.00,VWS V14.01,2013-05-20 15:52:00,
2013-05-20 18:57:00,83.1,56.3,29.92,ENE,68,0.0,0.0,40,0.00,,,0.00,VWS V14.01,2013-05-20 15:57:00,
2013-05-20 19:02:00,83.1,56.3,29.92,ENE,68,0.0,0.0,40,0.00,,,0.00,VWS V14.01,2013-05-20 16:02:00,
2013-05-20 19:07:00,82.9,56.1,29.92,ENE,68,0.0,0.0,40,0.00,,,0.00,VWS V14.01,2013-05-20 16:07:00,
2013-05-20 19:12:00,82.9,56.1,29.92,ENE,68,0.0,0.0,40,0.00,,,0.00,VWS V14.01,2013-05-20 16:12:00,
2013-05-20 19:17:00,82.6,55.8,29.92,ENE,68,0.0,0.0,40,0.00,,,0.00,VWS V14.01,2013-05-20 16:17:00,
2013-05-20 19:22:00,82.6,55.8,29.92,ENE,68,0.0,0.0,40,0.00,,,0.00,VWS V14.01,2013-05-20 16:22:00,
2013-05-20 19:27:00,82.4,56.3,29.92,ENE,68,0.0,0.0,41,0.00,,,0.00,VWS V14.01,2013-05-20 16:27:00,
2013-05-20 19:32:00,82.4,56.3,29.92,ENE,68,0.0,0.0,41,0.00,,,0.00,VWS V14.01,2013-05-20 16:32:00,
2013-05-20 19:37:00,82.2,56.8,29.92,ENE,68,0.0,0.0,42,0.00,,,0.00,VWS V14.01,2013-05-20 16:37:00,
2013-05-20 19:42:00,82.0,56.6,29.92,ENE,68,0.0,0.0,42,0.00,,,0.00,VWS V14.01,2013-05-20 16:42:00,
2013-05-20 19:47:00,81.7,57.0,29.93,ENE,68,0.0,0.0,43,0.00,,,0.00,VWS V14.01,2013-05-20 16:47:00,
2013-05-20 19:52:00,81.5,57.5,29.92,ENE,68,0.0,0.0,44,0.00,,,0.00,VWS V14.01,2013-05-20 16:52:00,
2013-05-20 19:57:00,81.1,58.3,29.92,ENE,68,0.0,0.0,46,0.00,,,0.00,VWS V14.01,2013-05-20 16:57:00,
2013-05-20 20:02:00,80.6,58.5,29.92,SW,225,0.0,0.0,47,0.00,,,0.00,VWS V14.01,2013-05-20 17:02:00,
2013-05-20 20:07:00,80.2,58.7,29.92,SW,225,0.0,0.0,48,0.00,,,0.00,VWS V14.01,2013-05-20 17:07:00,
2013-05-20 20:12:00,79.9,59.0,29.93,SW,225,0.0,0.0,49,0.00,,,0.00,VWS V14.01,2013-05-20 17:12:00,
2013-05-20 20:17:00,79.0,58.8,29.93,SW,225,0.0,0.0,50,0.00,,,0.00,VWS V14.01,2013-05-20 17:17:00,
2013-05-20 20:22:00,78.8,58.6,29.93,SW,225,0.0,0.0,50,0.00,,,0.00,VWS V14.01,2013-05-20 17:22:00,
2013-05-20 20:28:00,78.1,58.5,29.93,SW,225,0.0,0.0,51,0.00,,,0.00,VWS V14.01,2013-05-20 17:28:00,
2013-05-20 20:33:00,77.9,58.8,29.93,SW,225,0.0,0.0,52,0.00,,,0.00,VWS V14.01,2013-05-20 17:33:00,
2013-05-20 20:38:00,77.5,58.5,29.93,SW,225,0.0,0.0,52,0.00,,,0.00,VWS V14.01,2013-05-20 17:38:00,
2013-05-20 20:43:00,77.2,58.7,29.93,SW,225,0.0,0.0,53,0.00,,,0.00,VWS V14.01,2013-05-20 17:43:00,
2013-05-20 20:48:00,77.0,58.5,29.93,SW,225,0.0,0.0,53,0.00,,,0.00,VWS V14.01,2013-05-20 17:48:00,
2013-05-20 20:53:00,76.6,58.2,29.93,SW,225,0.0,0.0,53,0.00,,,0.00,VWS V14.01,2013-05-20 17:53:00,
2013-05-20 20:58:00,76.5,58.1,29.93,SW,225,0.0,0.0,53,0.00,,,0.00,VWS V14.01,2013-05-20 17:58:00,
2013-05-20 21:03:00,76.3,57.9,29.93,SW,225,0.0,0.0,53,0.00,,,0.00,VWS V14.01,2013-05-20 18:03:00,
2013-05-20 21:08:00,76.1,57.2,29.93,SW,225,0.0,0.0,52,0.00,,,0.00,VWS V14.01,2013-05-20 18:08:00,
2013-05-20 21:13:00,75.9,57.5,29.93,SW,225,0.0,0.0,53,0.00,,,0.00,VWS V14.01,2013-05-20 18:13:00,
2013-05-20 21:18:00,75.7,57.3,29.94,SW,225,0.0,0.0,53,0.00,,,0.00,VWS V14.01,2013-05-20 18:18:00,
2013-05-20 21:23:00,75.6,57.2,29.94,SW,225,0.0,0.0,53,0.00,,,0.00,VWS V14.01,2013-05-20 18:23:00,
2013-05-20 21:28:00,75.4,57.1,29.94,SW,225,0.0,0.0,53,0.00,,,0.00,VWS V14.01,2013-05-20 18:28:00,
2013-05-20 21:33:00,75.2,57.4,29.94,SW,225,0.0,0.0,54,0.00,,,0.00,VWS V14.01,2013-05-20 18:33:00,
2013-05-20 21:38:00,75.2,57.4,29.94,SW,225,0.0,0.0,54,0.00,,,0.00,VWS V14.01,2013-05-20 18:38:00,
2013-05-20 21:43:00,74.8,57.5,29.94,SW,225,0.0,0.0,55,0.00,,,0.00,VWS V14.01,2013-05-20 18:43:00,
2013-05-20 21:48:00,74.7,57.9,29.94,SW,225,0.0,0.0,56,0.00,,,0.00,VWS V14.01,2013-05-20 18:48:00,
2013-05-20 21:53:00,74.7,57.9,29.94,SW,225,0.0,0.0,56,0.00,,,0.00,VWS V14.01,2013-05-20 18:53:00,
2013-05-20 21:58:00,74.5,58.2,29.94,SW,225,0.0,0.0,57,0.00,,,0.00,VWS V14.01,2013-05-20 18:58:00,
2013-05-20 22:04:00,74.3,58.5,29.94,SW,225,0.0,0.0,58,0.00,,,0.00,VWS V14.01,2013-05-20 19:04:00,
2013-05-20 22:09:00,74.1,58.4,29.95,SW,225,0.0,0.0,58,0.00,,,0.00,VWS V14.01,2013-05-20 19:09:00,
2013-05-20 22:14:00,73.9,58.7,29.95,SW,225,0.0,0.0,59,0.00,,,0.00,VWS V14.01,2013-05-20 19:14:00,
2013-05-20 22:19:00,74.1,58.4,29.95,SW,225,0.0,0.0,58,0.00,,,0.00,VWS V14.01,2013-05-20 19:19:00,
2013-05-20 22:24:00,74.1,58.4,29.95,SW,225,0.0,0.0,58,0.00,,,0.00,VWS V14.01,2013-05-20 19:24:00,
2013-05-20 22:29:00,73.9,58.2,29.95,SW,225,0.0,0.0,58,0.00,,,0.00,VWS V14.01,2013-05-20 19:29:00,
2013-05-20 22:34:00,73.9,58.2,29.95,SW,225,0.0,0.0,58,0.00,,,0.00,VWS V14.01,2013-05-20 19:34:00,
2013-05-20 22:39:00,73.8,58.1,29.95,WSW,248,0.0,0.0,58,0.00,,,0.00,VWS V14.01,2013-05-20 19:39:00,
2013-05-20 22:44:00,74.5,56.8,29.95,WNW,292,0.0,0.4,54,0.00,,,0.00,VWS V14.01,2013-05-20 19:44:00,
2013-05-20 22:49:00,75.2,56.9,29.95,WNW,292,0.0,0.0,53,0.00,,,0.00,VWS V14.01,2013-05-20 19:49:00,
2013-05-20 22:54:00,75.2,57.9,29.95,WNW,292,0.0,0.0,55,0.00,,,0.00,VWS V14.01,2013-05-20 19:54:00,
2013-05-20 22:59:00,74.5,57.2,29.95,WNW,292,0.0,0.0,55,0.00,,,0.00,VWS V14.01,2013-05-20 19:59:00,
2013-05-20 23:04:00,74.5,57.8,29.95,WNW,292,0.0,0.0,56,0.00,,,0.00,VWS V14.01,2013-05-20 20:04:00,
2013-05-20 23:09:00,74.3,57.6,29.95,WNW,292,0.0,0.0,56,0.00,,,0.00,VWS V14.01,2013-05-20 20:09:00,
2013-05-20 23:14:00,74.1,57.9,29.95,WNW,292,0.0,0.0,57,0.00,,,0.00,VWS V14.01,2013-05-20 20:14:00,
2013-05-20 23:19:00,73.9,57.7,29.95,WNW,292,0.0,0.0,57,0.00,,,0.00,VWS V14.01,2013-05-20 20:19:00,
2013-05-20 23:24:00,73.6,57.9,29.95,WNW,292,0.0,0.0,58,0.00,,,0.00,VWS V14.01,2013-05-20 20:24:00,
2013-05-20 23:29:00,73.4,58.2,29.95,WNW,292,0.0,0.0,59,0.00,,,0.00,VWS V14.01,2013-05-20 20:29:00,
2013-05-20 23:34:00,73.4,58.2,29.95,WNW,292,0.0,0.0,59,0.00,,,0.00,VWS V14.01,2013-05-20 20:34:00,
2013-05-20 23:39:00,73.4,57.7,29.95,WNW,292,0.0,0.0,58,0.00,,,0.00,VWS V14.01,2013-05-20 20:39:00,
2013-05-20 23:44:00,73.4,57.2,29.95,WNW,292,0.0,0.0,57,0.00,,,0.00,VWS V14.01,2013-05-20 20:44:00,
2013-05-20 23:49:00,73.4,57.2,29.95,WNW,292,0.0,0.0,57,0.00,,,0.00,VWS V14.01,2013-05-20 20:49:00,
2013-05-20 23:54:00,73.2,57.0,29.95,WNW,292,0.0,0.0,57,0.00,,,0.00,VWS V14.01,2013-05-20 20:54:00,
2013-05-20 23:59:00,73.0,56.8,29.95,WNW,292,0.0,0.0,57,0.00,,,0.00,VWS V14.01,2013-05-20 20:59:00,